Regional Weather Roundup
Issued by NWS

Home | Current Version | Previous Version | Text Only | Print | Product List | Glossary On
Versions: 1 2 3 4 5 6 7 8 9 10 11 12 13 14 15 16 17 18 19 20 21 22 23 24 25 26 27 28 29 30 31 32 33 34 35 36 37 38 39 40 41 42 43 44 45 46 47 48 49 50
000
ASUS46 KLOX 302012
RWRCA

SOUTHERN CALIFORNIA WEATHER ROUNDUP
NATIONAL WEATHER SERVICE OXNARD CALIFORNIA
100 PM PDT MON MAR 30 2015

NOTE: "FAIR" INDICATES FEW OR NO CLOUDS BELOW 12,000 FEET WITH NO
SIGNIFICANT WEATHER AND/OR OBSTRUCTIONS TO VISIBILITY.

  -  STATIONS PRECEEDED BY AN ASTERISK (*) ARE NOT NWS OR FAA
     STATIONS AND ARE NOT SUBJECT TO NWS AND FAA QUALITY CONTROL.

CAZ041-042-087-302100-
LA AND ORANGE COUNTY COASTAL AREAS


CITY           SKY/WX    TMP DP  RH WIND       PRES   REMARKS
L.A. DOWNTOWN  SUNNY     77  57  50 VRB3      30.00F
L.A. AIRPORT   MOSUNNY   66  56  70 W13       30.03F
LONG BEACH     SUNNY     73  58  59 S8        30.02F HAZE

CITY           SKY/WX    TMP DP  RH WIND       PRES   REMARKS
AVALON           N/A     66 N/A N/A MISG        N/A
FULLERTON      SUNNY     78  50  37 VRB3      30.00F
*GETTY CENTER    N/A     73  52  46 S7          N/A
HAWTHORNE      SUNNY     71  56  58 W10       30.03S
*LEO CARRILLO    N/A     68  56  66 SW7         N/A
*LOS ALAMITOS  SUNNY     74  58  56 S8        30.01F HAZE
*REDONDO BEACH   N/A     69  57  67 CALM      30.03S
SANTA ANA      SUNNY     74  54  49 S9        30.01F
STA MONICA APT SUNNY     67  56  67 SW8       30.03F
TORRANCE       SUNNY     72  59  64 NW17      30.03F
*UCLA            N/A     68  52  56 SW7       30.00S

$$

CAZ547-548-048-302100-
LA COUNTY VALLEYS AND INLAND EMPIRE


CITY           SKY/WX    TMP DP  RH WIND       PRES   REMARKS
BURBANK        SUNNY     80  49  33 S6        30.01F
VAN NUYS       SUNNY     84  47  27 E5        30.00F

CITY           SKY/WX    TMP DP  RH WIND       PRES   REMARKS
CORONA AIRPORT CLEAR     80  51  36 W13       30.00F
CHINO          SUNNY     85  52  32 W10       30.01F
MARCH AFB      SUNNY     84  34  16 NW10      30.01F
*NORTHRIDGE      N/A     84  36  17 SE2         N/A
ONTARIO        SUNNY     83  42  23 W10       30.00F
*PASADENA        N/A     81  52  36 E5          N/A
RIVERSIDE      SUNNY     83  40  21 NW6       30.00F
SAN BERNARDINO SUNNY     82  34  17 W7        30.01F
*SAN GABRIEL     N/A     78  47  33 CALM      29.96F
*SAN RAFAEL HI   N/A     82  44  25 NW6         N/A
*SAUGUS          N/A     80  30  16 SW3         N/A
*WHITEMAN AP   NOT AVBL
*WOODLAND HILL   N/A     88  43  20 NE3         N/A

$$

CAZ054-055-302100-
LA AND SAN BERNARDINO COUNTY MOUNTAINS


CITY           SKY/WX    TMP DP  RH WIND       PRES   REMARKS
*BIG BEAR AIRP CLEAR     64  21  19 N8        30.26F
*CHILAO          N/A     72  17  12 SE14        N/A
MT WILSON NWS    N/A     77  32  19 MISG        N/A
SANDBERG       SUNNY     80  15   8 SE13G21   30.17F
*WARM SPRINGS    N/A     81  24  12 S3          N/A

$$

CAZ028-029-059-060-099-302100-
ANTELOPE VALLEY AND SURROUNDING AREAS


CITY           SKY/WX    TMP DP  RH WIND       PRES   REMARKS
LANCASTER      SUNNY     82  25  12 VRB3      30.06F
PALMDALE       SUNNY     79  22  12 VRB3      30.07F
*POPPY PARK      N/A     85  22  10 NE5         N/A

CITY           SKY/WX    TMP DP  RH WIND       PRES   REMARKS
29 PALMS       SUNNY     87  24  10 SE7       30.09F
BARSTOW/DAGGET SUNNY     85  16   7 CALM      30.02F
BISHOP         SUNNY     81  10   7 S9        30.11F
CHINA LAKE     SUNNY     85  25  11 CALM      30.05F
EDWARDS AFB    SUNNY     79  20  11 VRB2      30.04F
MOJAVE         FAIR      81  19  10 CALM      30.08F
NEEDLES        SUNNY     92  22   8 VRB3      29.97F
VICTORVILLE    SUNNY     82  21  10 CALM      30.07F

$$

CAZ039-040-302100-
VENTURA AND SANTA BARBARA COUNTY COAST


CITY           SKY/WX    TMP DP  RH WIND       PRES   REMARKS
CAMARILLO      SUNNY     68  55  63 SW9       30.03F
NWS OXNARD       N/A     68  55  62 CALM      30.03F
OXNARD AIRPORT SUNNY     66  55  67 SW9       30.04F
*POINT MUGU    PTSUNNY   67  55  65 W7        30.05F HAZE
SBA APT/GOLETA MOSUNNY   64  56  75 W9        30.04F
*SANTA BARBARA   N/A     73  56  54 CALM      30.10F
*VENTURA         N/A     70  55  57 SW3       30.08S

$$

CAZ044-045-302100-
VENTURA COUNTY VALLEYS


CITY           SKY/WX    TMP DP  RH WIND       PRES   REMARKS
*SIMI VALLEY     N/A     81  47  30 SW9       29.96F
*OJAI            N/A     84  47  26 W3        29.95S
*FILLMORE        N/A     82  48  30 SW1       29.90S

$$

CAZ053-302100-
VENTURA COUNTY MOUNTAINS


CITY           SKY/WX    TMP DP  RH WIND       PRES   REMARKS
*LOCKWOOD VLY    N/A     72   9   8 MISG        N/A
*ROSE VALLEY     N/A     79  41  25 MISG        N/A

$$

CAZ034-035-036-302100-
CENTRAL COAST AND SANTA YNEZ VALLEY


CITY           SKY/WX    TMP DP  RH WIND       PRES   REMARKS
SAN LUIS OBISP SUNNY     74  52  46 VRB3      30.03F
SANTA MARIA    SUNNY     71  52  50 NW10      30.05S

CITY           SKY/WX    TMP DP  RH WIND       PRES   REMARKS
*CAL POLY SLO    N/A     75  55  50 S6          N/A
*LOMPOC        SUNNY     64  52  63 W13       30.06S
*PISMO BEACH     N/A     57  53  89 W5        30.05F
*SANTA YNEZ    FAIR      82  37  20 W9        30.01F

$$

CAZ037-038-051-302100-
SAN LUIS OBISPO COUNTY INTERIOR AND CUYAMA VALLEY


CITY           SKY/WX    TMP DP  RH WIND       PRES   REMARKS
*CUYAMA          N/A     79  29  16 NE1       29.97F
PASO ROBLES    SUNNY     84  37  18 N6        30.03F

$$

CAZ032-033-061-302100-
SOUTHERN DESERTS


CITY           SKY/WX    TMP DP  RH WIND       PRES   REMARKS
BLYTHE         SUNNY     91  31  11 SW7       29.95F
IMPERIAL       SUNNY     91  42  18 VRB3      29.92F
PALM SPRINGS   SUNNY     93  28  10 E9G18     29.96F
THERMAL        SUNNY     94  33  11 MISG      29.91F

$$

ELSEWHERE ACROSS THE WESTERN UNITED STATES AND MEXICO


CITY           SKY/WX    TMP DP  RH WIND       PRES   REMARKS
DENVER, CO     MOSUNNY   71  19  14 E5        30.12F
GRAND CANYON,  SUNNY     69  16  13 VRB6G17   30.27F
HONOLULU, HI   MOSUNNY   73  64  73 NE16G22   30.14R
KAHULUI, MAUI  MOSUNNY   77  68  73 NE15G23   30.13S
LAKE TAHOE, CA MOSUNNY   65  33  30 MISG      30.21F
LAS VEGAS, NV  MOSUNNY   86  21   9 VRB3      30.01F
MAMMOTH LAKES, FAIR      66  10  11 E8G18     30.27F
MEXICO CITY, M SUNNY     72  34  25 N10       30.38F
PHOENIX, AZ    PTSUNNY   92  25   9 E5        29.98F
PORTLAND, OR   MOSUNNY   59  46  62 N5        30.05F
RENO, NV       PTSUNNY   75  19  12 E6        30.11F
SALT LAKE CITY MOSUNNY   69  25  19 W7        30.19F
SAN DIEGO, CA  MOSUNNY   70  55  59 VRB5      30.03F
SAN FRANCISCO, PTSUNNY   64  51  62 W23       30.07S
SAN JOSE, CA   PTSUNNY   70  51  51 W7        30.05F
SEATTLE, WA    PTSUNNY   58  46  64 SW9       30.05F
TIJUANA, MEX   SUNNY     72  54  53 W12       30.04F

$$

STATION/POSITION TIME  TEMP    WIND        PRES    VSBY  WAVE
                       AIR SEA DIR/SP/G                  HT/PER
                 (UTC) (F)     (DEG/KT/KT) (MB)    (MI)  (FT/S)
POINT ARGUELLO B NOT AVBL
WEST SANTA BARBA 2000   56 59  300/  6/ 10 1017.4F         8/16
POINT CONCEPTION NOT AVBL
EAST SANTA BARBA NOT AVBL
SANTA MONICA BAY 2000   60 66  240/  4/  6 1017.5F         4/16


USA.gov is the U.S. government's official web portal to all federal, state and local government web resources and services.